Regional Weather Roundup
Issued by NWS Cleveland, OH

Home | Current Version | Previous Version | Text Only | Print | Product List | Glossary Off
Versions: 1 2 3 4 5 6 7 8 9 10 11 12 13 14 15 16 17 18 19 20 21 22 23 24 25 26 27 28 29 30 31 32 33 34 35 36 37 38 39 40 41 42 43 44 45 46 47 48 49 50

000
ASUS41 KCLE 250000
RWRCLE
OHIO REGIONAL WEATHER ROUNDUP
NATIONAL WEATHER SERVICE WILMINGTON, OH
700 PM EST SAT FEB 24 2018

NOTE: "FAIR" INDICATES FEW OR NO CLOUDS BELOW 12,000 FEET WITH NO
SIGNIFICANT WEATHER AND/OR OBSTRUCTIONS TO VISIBILITY.

OHZ001>008-015>018-024>027-034-035-043-044-250100-
   NORTHWEST OHIO

CITY           SKY/WX    TMP DP  RH WIND       PRES   REMARKS
DEFIANCE       CLOUDY    38  34  85 E16G22    29.96F
FINDLAY        CLOUDY    41  36  82 E10       29.96F
TOLEDO EXPRESS CLOUDY    37  33  85 E15       29.99F
TOLEDO EXEC    CLOUDY    37  31  78 E14G24    30.02F
LIMA           CLOUDY    45  44  97 E10       29.92F
$$

OHZ009>014-019>023-028>033-038-089-250100-
   NORTHEAST OHIO

CITY           SKY/WX    TMP DP  RH WIND       PRES   REMARKS
CLE-HOPKINS    CLOUDY    40  36  86 NE6       30.06F
CLE-LAKEFRONT  CLOUDY    37  34  89 NE10      30.03F
CUY CO. ARPT   CLOUDY    43  39  87 E10       30.05F
LORAIN-ELYRIA  CLOUDY    38  31  76 NE14      30.03F
ASHTABULA      CLOUDY    39  34  82 E5        30.07F
AKRON-CANTON   CLOUDY    47  42  83 SE8       30.03S
WOOSTER        CLOUDY    46  43  89 SE9       30.01F
MANSFIELD      CLOUDY    46  44  93 E10       29.99F
YOUNGSTOWN     CLOUDY    46  41  82 E6        30.04F
$$

OHZ042-051>053-060>062-070>072-077>081-250100-
  SOUTHWEST OHIO

CITY           SKY/WX    TMP DP  RH WIND       PRES   REMARKS
CINC-COVINGTON LGT RAIN  52  51  97 E10       29.88F FOG
CINC-LUNKEN    LGT RAIN  53  52  96 N7        29.91F
HAMILTON       HVY RAIN  52  51  97 E6        29.91F FOG
DAYTON         NOT AVBL
WRIGHT-PAT AFB LGT RAIN  50  48  93 E3        29.92F
DAYTON GENERAL HVY RAIN  51  48  89 E7        29.90R FOG
WILMINGTON     LGT RAIN  50  50 100 E9        29.91S FOG
$$

OHZ036-037-039>041-045>050-054>059-063>069-073>076-082>088-250100-
  CENTRAL AND SOUTHEAST OHIO

CITY           SKY/WX    TMP DP  RH WIND       PRES   REMARKS
COLUMBUS       LGT RAIN  50  48  93 E10       29.95F
OSU AIRPORT    RAIN      49  49 100 E13       29.93F FOG
BOLTON FIELD   LGT RAIN  48  48 100 E7        29.96F
RICKENBACK AFB NOT AVBL
NEWARK         LGT RAIN  49  46  90 NE6       29.97F
MARION         CLOUDY    48  44  86 E10       29.96F
LANCASTER      CLOUDY    49  48  97 E9        29.98F
ZANESVILLE     CLOUDY    50  46  86 NE5       30.00F
NEW PHILLY     CLOUDY    49  44  83 E7        30.03F
$$



USA.gov is the U.S. government's official web portal to all federal, state and local government web resources and services.